Regional Weather Roundup
Issued by NWS

Home | Current Version | Previous Version | Graphics & Text | Print | Product List | Glossary Off
Versions: 1 2 3 4 5 6 7 8 9 10 11 12 13 14 15 16 17 18 19 20 21 22 23 24 25 26 27 28 29 30 31 32 33 34 35 36 37 38 39 40 41 42 43 44 45 46 47 48 49 50

000
ASUS45 KCYS 211910
RWRWY

WYOMING REGIONAL WEATHER ROUNDUP
NATIONAL WEATHER SERVICE CHEYENNE WY
1200 PM MST SUN JAN 21 2018

NOTE:  "FAIR" INDICATES FEW OR NO CLOUDS BELOW 12,000 FEET
WITH NO SIGNIFICANT WEATHER AND/OR OBSTRUCTIONS TO VISIBILITY.

WYZ001-212000-
YELLOWSTONE NATIONAL PARK

CITY           SKY/WX    TMP DP  RH WIND       PRES   REMARKS
LK YELLOWSTONE   N/A      1  -2  87 CALM      30.06F
W YELLOWSTONE  NOT AVBL

$$
WYZ002>013-054>058-071-098>099-212000-
NORTHERN WYOMING

CITY           SKY/WX    TMP DP  RH WIND       PRES   REMARKS
JACKSON        FAIR      21   7  54 E6        30.09F WCI  13
CODY           FAIR      32   9  38 SW6       30.04F WCI  26
GREYBULL       FAIR      28  19  69 SE3       30.07F
WORLAND        FAIR      24  19  81 CALM      30.07F
SHERIDAN       FAIR      31  20  63 N6        30.04F WCI  25
BUFFALO        FAIR      30  16  56 N16       30.01F WCI  19
GILLETTE       PTSUNNY   30  21  69 NW9       30.01F WCI  22
HULETT         CLOUDY    30  21  69 CALM      30.01F
NEWCASTLE      FAIR      28  23  80 NW9       29.98F WCI  20

$$
WYZ014>020-022>026-101>103-212000-
CENTRAL WYOMING

CITY           SKY/WX    TMP DP  RH WIND       PRES   REMARKS
BIG PINEY      FAIR      27   9  46 N15G25    29.99S WCI  15
PINEDALE       FAIR      23  10  58 NW3       30.00S
DUBOIS         FAIR      23  12  63 NW5       29.98S WCI  17
LANDER         CLOUDY    27  16  63 NW6       30.02F WCI  20
RIVERTON       CLOUDY    27  16  63 NW7       30.03F WCI  19
CASPER         CLOUDY    24  19  81 NW3       30.00F
DOUGLAS        LGT SNOW  24  21  88 NW13      29.99F FOG     WCI  12

$$
WYZ021-027>030-104>119-212000-
SOUTHERN WYOMING

CITY           SKY/WX    TMP DP  RH WIND       PRES   REMARKS
EVANSTON       LGT SNOW  20  13  74 NW14      30.06F WCI   7
FORT BRIDGER   CLOUDY    21  12  68 W16G24    30.06F WCI   7
ROCK SPRINGS   LGT SNOW  18  13  80 W14       30.01R WCI   4
DIXON            N/A     24  14  66 N20G26    29.95R WCI   9
RAWLINS        LGT SNOW  20  16  84 N18       29.94S FOG     WCI   5
SARATOGA       LGT SNOW  21  16  79 N14       29.92R WCI   8
LARAMIE        LGT SNOW  17  15  92 N16       29.83F VSB 1   WCI   2
CHEYENNE       LGT SNOW  21  19  92 N20G28    29.84F VSB 3/4 WCI   6
TORRINGTON     LGT SNOW  28  25  88 N13G21    29.92F FOG     WCI  17

$$



USA.gov is the U.S. government's official web portal to all federal, state and local government web resources and services.